Date String (YYYY-MM-DD hh:mm:ss) UTC,Instrument flags,absolute air pressure of the measurement (hPa),sample flow rate (lpm),inlet stack bypass flow (lpm),air temperature of the measurement (°C),ambient temperature measured by the external sensor (°C),aerosol sample conditioner tube jacket temperature (°C),OPC LED temperature (°C),internal box temperature (°C),relative humidity of the measurement (%),span deviation,mass concentration of particles derived from Lorenz-Mie calculation of OPC scattering (μg/m³),mass concentration of particles derived from Lorenz-Mie calculation of OPC scattering (μg/m³),mass concentration of particles derived from Lorenz-Mie calculation of OPC scattering (μg/m³)
DateTimeUTC,F1_M11,P_M11,Q1_M11,Q2_M11,T1_M11,T2_M11,T3_M11,T4_M11,T5_M11,U1_M11,ZSPAN_M11,X2_M11,X0_M11,X1_M11
2024-04-26 06:00:00,SystemResetWarning,0818.5,5.00,000.00,025.7,024.8,000.0,034.2,027.5,022.2,0000.0,0002.24,0003.95,0001.64
2024-04-26 06:01:00,SystemResetWarning,0818.5,4.99,000.00,025.7,024.8,000.0,034.2,027.5,022.3,0000.0,0002.28,0004.04,0001.64
2024-04-26 06:02:00,SystemResetWarning,0818.5,5.00,000.00,025.7,024.8,000.0,034.2,027.5,022.3,0000.0,0002.29,0004.04,0001.64
2024-04-26 06:03:00,SystemResetWarning,0818.5,5.00,000.00,025.7,024.8,000.0,034.2,027.5,022.4,0000.0,0002.21,0003.75,0001.63
2024-04-26 06:04:00,SystemResetWarning,0818.5,5.00,000.00,025.7,024.8,000.0,034.2,027.5,022.4,0000.0,0002.18,0003.68,0001.62
2024-04-26 06:05:00,SystemResetWarning,0818.5,5.00,000.00,025.7,024.8,000.0,034.2,027.5,022.5,0000.0,0002.17,0003.73,0001.60
2024-04-26 06:06:00,SystemResetWarning,0818.5,5.00,000.00,025.7,024.9,000.0,034.2,027.5,022.5,0000.0,0002.21,0003.59,0001.60
2024-04-26 06:07:00,SystemResetWarning,0818.5,5.00,000.00,025.7,024.9,000.0,034.2,027.5,022.6,0000.0,0002.24,0003.78,0001.59
2024-04-26 06:08:00,SystemResetWarning,0818.5,5.00,000.00,025.7,024.9,000.0,034.2,027.5,022.6,0000.0,0002.25,0003.73,0001.59
2024-04-26 06:09:00,SystemResetWarning,0818.5,5.00,000.00,025.7,024.8,000.0,034.2,027.5,022.6,0000.0,0002.28,0003.79,0001.58
2024-04-26 06:10:00,SystemResetWarning,0818.4,5.00,000.00,025.7,024.8,000.0,034.2,027.5,022.6,0000.0,0002.28,0003.76,0001.58
2024-04-26 06:11:00,SystemResetWarning,0818.4,5.00,000.00,025.7,024.8,000.0,034.2,027.5,022.5,0000.0,0002.21,0003.69,0001.55
2024-04-26 06:12:00,SystemResetWarning,0818.4,5.00,000.00,025.7,024.8,000.0,034.2,027.5,022.5,0000.0,0002.19,0003.68,0001.54
2024-04-26 06:13:00,SystemResetWarning,0818.4,5.00,000.00,025.6,024.8,000.0,034.2,027.5,022.5,0000.0,0002.19,0003.70,0001.53
2024-04-26 06:14:00,SystemResetWarning,0818.4,5.00,000.00,025.6,024.8,000.0,034.2,027.5,022.6,0000.0,0002.17,0003.71,0001.51
2024-04-26 06:15:00,SystemResetWarning,0818.5,5.00,000.00,025.6,024.8,000.0,034.2,027.4,022.6,0000.0,0002.17,0003.73,0001.50
2024-04-26 06:16:00,SystemResetWarning,0818.5,5.00,000.00,025.6,024.8,000.0,034.2,027.4,022.5,0000.0,0002.20,0003.76,0001.51
2024-04-26 06:17:00,SystemResetWarning,0818.5,5.01,000.00,025.6,024.8,000.0,034.2,027.4,022.4,0000.0,0002.20,0003.83,0001.52
2024-04-26 06:18:00,SystemResetWarning,0818.5,5.01,000.00,025.6,024.8,000.0,034.2,027.4,022.4,0000.0,0002.23,0003.83,0001.53
2024-04-26 06:19:00,SystemResetWarning,0818.5,4.99,000.00,025.6,024.8,000.0,034.2,027.4,022.4,0000.0,0002.25,0003.83,0001.57
2024-04-26 06:20:00,SystemResetWarning,0818.4,5.00,000.00,025.6,024.8,000.0,034.2,027.4,022.4,0000.0,0002.27,0003.83,0001.61
2024-04-26 06:21:00,SystemResetWarning,0818.4,5.00,000.00,025.6,024.7,000.0,034.2,027.4,022.5,0000.0,0002.24,0003.79,0001.64
2024-04-26 06:22:00,SystemResetWarning,0818.4,4.99,000.00,025.6,024.7,000.0,034.2,027.4,022.3,0000.0,0002.29,0003.82,0001.67
2024-04-26 06:23:00,SystemResetWarning,0818.4,5.00,000.00,025.6,024.7,000.0,034.2,027.4,022.5,0000.0,0002.36,0004.12,0001.70
2024-04-26 06:24:00,SystemResetWarning,0818.4,4.99,000.00,025.6,024.7,000.0,034.2,027.4,022.6,0000.0,0002.41,0004.32,0001.72
2024-04-26 06:25:00,SystemResetWarning,0818.4,5.00,000.00,025.6,024.7,000.0,034.1,027.4,022.7,0000.0,0002.45,0004.44,0001.74
2024-04-26 06:26:00,SystemResetWarning,0818.4,5.00,000.00,025.6,024.8,000.0,034.1,027.4,022.8,0000.0,0002.47,0004.45,0001.76
2024-04-26 06:27:00,SystemResetWarning,0818.4,5.01,000.00,025.6,024.8,000.0,034.1,027.5,022.8,0000.0,0002.47,0004.38,0001.80
2024-04-26 06:28:00,SystemResetWarning,0818.4,5.01,000.00,025.6,024.8,000.0,034.1,027.4,022.9,0000.0,0002.52,0005.13,0001.82
2024-04-26 06:29:00,SystemResetWarning,0818.4,5.00,000.00,025.6,024.8,000.0,034.2,027.4,022.9,0000.0,0002.50,0005.14,0001.83
2024-04-26 06:30:00,SystemResetWarning,0818.5,4.99,000.00,025.6,024.8,000.0,034.2,027.4,023.0,0000.0,0002.41,0004.92,0001.80
2024-04-26 06:31:00,SystemResetWarning,0818.5,4.99,000.00,025.6,024.8,000.0,034.2,027.5,023.0,0000.0,0002.42,0004.99,0001.78
2024-04-26 06:32:00,SystemResetWarning,0818.5,5.02,000.00,025.6,024.8,000.0,034.2,027.5,023.4,0000.0,0002.41,0004.94,0001.77
2024-04-26 06:33:00,SystemResetWarning,0818.6,5.00,000.00,025.6,024.8,000.0,034.2,027.5,023.7,0000.0,0002.44,0005.04,0001.77
2024-04-26 06:34:00,SystemResetWarning,0818.6,4.99,000.00,025.6,024.8,000.0,034.1,027.4,024.0,0000.0,0002.48,0004.96,0001.76
2024-04-26 06:35:00,SystemResetWarning,0818.6,4.99,000.00,025.6,024.8,000.0,034.1,027.4,024.2,0000.0,0002.41,0004.68,0001.75
2024-04-26 06:36:00,SystemResetWarning,0818.6,5.01,000.00,025.6,024.8,000.0,034.1,027.4,024.3,0000.0,0002.42,0004.78,0001.76
2024-04-26 06:37:00,SystemResetWarning,0818.6,5.02,000.00,025.6,024.8,000.0,034.1,027.4,024.6,0000.0,0002.46,0004.90,0001.77
2024-04-26 06:38:00,SystemResetWarning,0818.6,5.00,000.00,025.6,024.7,000.0,034.1,027.4,025.0,0000.0,0002.51,0005.04,0001.78
2024-04-26 06:39:00,SystemResetWarning,0818.6,4.99,000.00,025.6,024.7,000.0,034.1,027.4,025.4,0000.0,0002.48,0004.54,0001.78
2024-04-26 06:40:00,SystemResetWarning,0818.6,4.99,000.00,025.6,024.7,000.0,034.1,027.4,025.9,0000.0,0002.51,0005.96,0001.79
2024-04-26 06:41:00,SystemResetWarning,0818.6,5.00,000.00,025.5,024.7,000.0,034.1,027.3,026.3,0000.0,0002.59,0006.06,0001.85
2024-04-26 06:42:00,SystemResetWarning,0818.6,5.00,000.00,025.5,024.6,000.0,034.1,027.3,026.5,0000.0,0002.69,0006.18,0001.92
2024-04-26 06:43:00,SystemResetWarning,0818.6,5.01,000.00,025.5,024.5,000.0,034.1,027.3,026.8,0000.0,0002.75,0006.27,0001.99
2024-04-26 06:44:00,SystemResetWarning,0818.6,5.01,000.00,025.5,024.5,000.0,034.1,027.2,027.2,0000.0,0002.86,0006.41,0002.06
2024-04-26 06:45:00,SystemResetWarning,0818.5,5.00,000.00,025.4,024.5,000.0,034.1,027.2,027.5,0000.0,0002.95,0006.47,0002.18
2024-04-26 06:46:00,SystemResetWarning,0818.5,5.00,000.00,025.4,024.5,000.0,034.1,027.2,027.8,0000.0,0003.06,0007.11,0002.28
2024-04-26 06:47:00,SystemResetWarning,0818.4,5.00,000.00,025.4,024.4,000.0,034.1,027.2,028.0,0000.0,0003.13,0007.66,0002.40
2024-04-26 06:48:00,SystemResetWarning,0818.4,5.00,000.00,025.4,024.4,000.0,034.1,027.2,028.2,0000.0,0003.20,0007.94,0002.52
2024-04-26 06:49:00,SystemResetWarning,0818.4,5.00,000.00,025.4,024.4,000.0,034.0,027.2,028.2,0000.0,0003.27,0008.10,0002.64
2024-04-26 06:50:00,SystemResetWarning,0818.4,5.00,000.00,025.4,024.4,000.0,034.0,027.2,028.2,0000.0,0003.34,0008.20,0002.76
2024-04-26 06:51:00,SystemResetWarning,0818.4,5.00,000.00,025.4,024.4,000.0,034.0,027.2,028.1,0000.0,0003.42,0007.41,0002.86
2024-04-26 06:52:00,SystemResetWarning,0818.3,4.99,000.00,025.3,024.4,000.0,034.0,027.2,028.1,0000.0,0003.48,0007.45,0002.93
2024-04-26 06:53:00,SystemResetWarning,0818.3,5.00,000.00,025.3,024.4,000.0,034.0,027.1,028.2,0000.0,0003.50,0007.44,0002.99
2024-04-26 06:54:00,SystemResetWarning,0818.3,4.99,000.00,025.3,024.4,000.0,034.0,027.1,028.6,0000.0,0003.56,0007.55,0003.05
2024-04-26 06:55:00,SystemResetWarning,0818.3,5.00,000.00,025.3,024.4,000.0,034.0,027.2,028.7,0000.0,0003.57,0007.57,0003.08
2024-04-26 06:56:00,SystemResetWarning,0818.3,5.00,000.00,025.3,024.5,000.0,034.0,027.2,028.5,0000.0,0003.57,0007.56,0003.08
2024-04-26 06:57:00,SystemResetWarning,0818.3,5.00,000.00,025.3,024.5,000.0,034.0,027.1,028.4,0000.0,0003.60,0007.25,0003.10
2024-04-26 06:58:00,SystemResetWarning,0818.3,5.00,000.00,025.3,024.4,000.0,034.0,027.1,028.4,0000.0,0003.63,0006.79,0003.11
2024-04-26 06:59:00,SystemResetWarning,0818.3,5.00,000.00,025.3,024.4,000.0,034.0,027.1,028.5,0000.0,0003.64,0006.59,0003.11
